Tracking 35237 objects as of 6-Sep-2026
HD Live streaming from Space Station
objects crossing your sky now

NUSAT-27 (SALLY RIDE)


NUSAT-27 (SALLY RIDE) is no longer on orbit


NORAD ID: 52172
Int'l Code: 2022-033R
Launch date: April 1, 2022
Source: Argentina (ARGN)
Launch site: AIR FORCE EASTERN TEST RANGE (AFETR)
Decay date: 2024-08-01
Your satellite tracking list
Your tracking list is empty




NASA's NSSDC Master Catalog

Two Line Element Set (TLE):
1 52172U 22033R   24214.53932329  .13425755  25084-5  16123-3 0  9998
2 52172  97.2510 307.3507 0014168 264.1829  95.7861 16.49144329131318
Source of the keplerian elements: AFSPC